{"data":{"norad_id":62611,"epoch":"2026-05-25T04:15:51.283296Z","epoch_age_seconds":59933,"freshness":"FRESH","line1":"1 62611U 25009C   26145.17767689  .00006787  00000+0  27725-3 0  9994","line2":"2 62611  97.3921 224.7063 0008319  64.4294 295.7803 15.24673639 75252","mean_motion":15.24673639,"eccentricity":0.0008319,"inclination_deg":97.3921,"raan_deg":224.7063,"arg_perigee_deg":64.4294,"mean_anomaly_deg":295.7803,"bstar":0.00027725,"rev_number":7525,"period_min":94.44644172798,"perigee_km":486.05053588329,"apogee_km":497.48067984225,"semimajor_km":6869.9026078628,"source":"CELESTRAK","updated_at":"2026-05-25T13:38:03.126571Z"}}